STARLINK-3323 (50804 NORAD) Tracking and Keplerian Element Data

This shows tracking and keplerian element data for the satellite.

Feedback or suggestion? Click here.




ElementValue
Catalog50804
NameSTARLINK-3323
Epoch Orbit130
Epoch Day140.58334491
Epoch Year2022
RAAN275.0579
Inclination53.2132
Eccentricity0.0001768
Argument of Perigee52.4816
Mean Anonmoly28.9795
Mean Motion15.08857732
Decay Rate-0.0003476
L11 50804U 22001B 22140.58334491 -.00034760 00000+0 -21754-2 0 9990
L22 50804 53.2132 275.0579 0001768 52.4816 28.9795 15.08857732 1308

Live tracking and technical data element details for STARLINK-3323 (NORAD 50804). STARLINK-3323 can be tracked NOW for your location showing map with azimuth and elevation plus other details from your city location.

Track the satellite on the map from your city or location and see movement details for azimuth, elevation, latitude, longitude, range, height, and movement on the map or in text.







IsCatalogInMostPopularTable: catalog: 50804, numindb: 18
Update: records affected: 1



GetName: 50804 STARLINK-3323

Hit Count: updated at: Sun, 22 May 2022 03:32:31 GMT